Rbgn^[z[y[W
メイン
   新天体発見情報
     Comet C/2023 R2 (PANSTARRS)
投稿するにはまず登録を

フラット表示 前のトピック | 次のトピック
投稿者 スレッド
佐藤裕久
投稿日時: 2023-10-17 10:05
モデレータ
登録日: 2005-6-12
居住地: 日本
投稿: 2608
オンライン
Comet C/2023 R2 (PANSTARRS)

R. Weryk (西オンタリオ大学,物理および天文学科)の通報によると、9月10日、Haleakalaにある
Pan-STARRS2 1.8-m Ritchey-Chretien反射望遠鏡で得た画像から彗星を発見した。
この天体が発見された画像では、わずかに彗星状に見えた。しかし、9月11.61日(UT)、Maunakea
にある、3.6-m Canada-France-Hawaii 望遠鏡で得た3枚の60-秒gri-バンドフォローアップ画像
では、彗星であることを確認した。1".0のシーイングで、1".6 (半値全幅:FWHM)の非常に集光し
たコマと、p.a. 230-300°にわたって4"以上の広い尾がある。
Y. Ramanjooloo (ハワイ大学)によると、9月19.6日UT、追加4枚の45-秒のw-バンドPan-STARRS2画
像では、拡散した2".5 (FWHM)のコマが見えるが尾は見えない。
小惑星センターのPCCP webpageに公表後、佐藤英貴氏(東京都文京区、9月13.78日UT, 120-秒CCD
露出8枚のスタック, 0.51-m f/6.8 アストログラフ, Siding Spring, NSW, オーストラリア,遠隔 
操作:強く集光した8"のコマとp.a. 150°に向かって5"が尾の気配がある。4".9の円形範囲で測定
した光度は19.9等であった)によって彗星状と観測された。

発見位置は次のとおり、

     2023 UT             R.A. (2000) Decl.       Mag.
     Sept.10.58966    3 15 42.86   + 0 29 27.3   20.6
          10.60129    3 15 42.82   + 0 29 23.2   20.6
          10.61287    3 15 42.79   + 0 29 18.8   20.6

MPCの双曲線軌道要素、位置推算表は次のとおり

Orbital elements:
    C/2023 R2 (PANSTARRS)                                                       
Epoch 2023 Sept. 13.0 TT = JDT 2460200.5                                        
T 2024 Aug. 11.86782 TT                                 Rudenko                 
q   0.9059381            (2000.0)            P               Q                  
z  -0.0020988      Peri.  337.03886     -0.96214944     -0.26020356             
 +/-0.0019441      Node   189.09588     +0.24945370     -0.96058725             
e   1.0019013      Incl.   30.82626     -0.10973285     +0.09780720             
From 120 observations 2023 Sept. 10-29, mean residual 0".4.                     
                                                                                
Ephemeris:
Date    TT    R. A. (2000) Decl.     Delta      r    Elong.  Phase   m1
2023 09 03    03 15 33.4 +01 12 44   4.1940  4.6693   112.2    11.5  20.3
...
2023 09 18    03 15 03.0 -00 17 53   3.8494  4.5163   126.2    10.3  20.0
...
2023 09 26    03 13 22.4 -01 14 11   3.6808  4.4339   133.8     9.4  19.8
...
2023 10 02    03 11 26.6 -01 59 28   3.5631  4.3717   139.4     8.6  19.7
2023 10 03    03 11 04.0 -02 07 14   3.5442  4.3613   140.3     8.4  19.6
2023 10 04    03 10 40.3 -02 15 04   3.5257  4.3509   141.2     8.3  19.6
...
2023 10 10    03 07 58.4 -03 03 01   3.4194  4.2883   146.6     7.4  19.5
...
2023 10 18    03 03 30.9 -04 08 43   3.2927  4.2043   152.9     6.2  19.3
...
2023 11 02    02 52 55.5 -06 10 16   3.1063  4.0452   158.3     5.2  19.0

(MPEC 2023-T07、CBET 5301)

フラット表示 前のトピック | 次のトピック

題名 投稿者 日時
 » Comet C/2023 R2 (PANSTARRS) 佐藤裕久 2023-10-17 10:05

投稿するにはまず登録を
 
© 1999 Tsutomu Seki.